Weather History for Kandahar, Afghanistan

Change the Weather History Date:

Tuesday, February 5, 2013

  Actual Average Record
Temperature  
Mean Temperature 43 °F -  
Max Temperature 51 °F 61 °F - ()
Min Temperature 35 °F 38 °F - ()
Degree Days  
Heating Degree Days 22    
Moisture  
Dew Point 32 °F    
Average Humidity 70    
Maximum Humidity 100    
Minimum Humidity 30    
Precipitation  
Precipitation 0.00 in 0.05 in - ()
Sea Level Pressure  
Sea Level Pressure 30.06 in    
Wind  
Wind Speed 6 mph ()    
Max Wind Speed 21 mph    
Max Gust Speed 30 mph    
Visibility 4.7 miles    
Events      
T = Trace of Precipitation, MM = Missing Value Source: Averaged Metar Reports

Daily Weather History Graph

Daily Weather History Graph

Search for Another Location

Airport:

Trip Planner

Search our weather history database for the weather conditions in past years. The results will help you decide how hot, cold, wet, or windy it might be!

Date:

Astronomy

Feb. 05, 2013 Rise Set
Actual Time 6:56 AM AFT 5:44 PM AFT
Civil Twilight 6:31 AM AFT 6:10 PM AFT
Nautical Twilight 6:02 AM AFT 6:39 PM AFT
Astronomical Twilight 5:33 AM AFT 7:07 PM AFT
Moon 2:04 AM AFT (2/5) 12:44 PM AFT (2/5)
Length of Visible Light 11h 38m
Length of Day
10h 48m
Waning Crescent, 31% of the Moon is Illuminated
Feb 5
Waning Crescent
Feb 10
New
Feb 18
First Quarter
Feb 26
Full
Mar 5
Last Quarter

Hourly Weather History & Observations

Time (AFT) Temp. Windchill Dew Point Humidity Pressure Visibility Wind Dir Wind Speed Gust Speed Precip Events Conditions
12:20 AM 41.0 °F 37.1 °F 37.4 °F 87% 30.03 in 6.2 mi NNE 5.8 mph - N/A   Clear
1:20 AM 39.2 °F 37.0 °F 37.4 °F 93% 30.05 in 6.2 mi ENE 3.5 mph - N/A   Clear
2:20 AM 39.2 °F - 37.4 °F 93% 30.04 in 6.2 mi Variable 2.3 mph - N/A   Clear
3:20 AM 37.4 °F 34.9 °F 37.4 °F 100% 30.05 in 6.2 mi NE 3.5 mph - N/A   Clear
4:20 AM 37.4 °F 34.9 °F 35.6 °F 93% 30.06 in 6.2 mi NE 3.5 mph - N/A   Clear
5:20 AM 37.4 °F - 33.8 °F 87% 30.07 in 2.5 mi SSE 2.3 mph - N/A   Clear
5:47 AM 37.4 °F 32.1 °F 32.0 °F 81% 30.07 in 1.5 mi South 6.9 mph - N/A   Clear
6:20 AM 37.4 °F 32.1 °F 32.0 °F 81% 30.09 in 1.5 mi South 6.9 mph - N/A   Clear
6:38 AM 37.4 °F 32.1 °F 32.0 °F 81% 30.09 in 1.1 mi South 6.9 mph - N/A   Clear
7:20 AM 35.6 °F 31.7 °F 32.0 °F 87% 30.10 in 1.0 mi South 4.6 mph - N/A   Clear
8:05 AM 37.4 °F 31.4 °F 32.0 °F 81% 30.10 in 1.5 mi SSW 8.1 mph - N/A   Clear
8:20 AM 37.4 °F 30.3 °F 32.0 °F 81% 30.11 in 1.5 mi SSW 10.4 mph - N/A   Mostly Cloudy
9:20 AM 37.4 °F 30.8 °F 33.8 °F 87% 30.12 in 1.9 mi SW 9.2 mph - N/A   Overcast
10:00 AM 39.2 °F 35.0 °F 33.8 °F 81% 30.11 in 3.1 mi WSW 5.8 mph - N/A   Overcast
10:20 AM 41.0 °F 34.3 °F 35.6 °F 81% 30.10 in 4.3 mi SW 11.5 mph - N/A   Overcast
11:20 AM 41.0 °F 35.8 °F 33.8 °F 76% 30.08 in 6.2 mi SW 8.1 mph - N/A   Mostly Cloudy
11:55 AM 44.6 °F 39.2 °F 33.8 °F 66% 30.04 in 6.2 mi SW 10.4 mph 15.0 mph N/A   Scattered Clouds
12:20 PM 44.6 °F 39.7 °F 33.8 °F 66% 30.04 in 6.2 mi WSW 9.2 mph 15.0 mph N/A   Partly Cloudy
12:30 PM 44.6 °F 39.2 °F 33.8 °F 66% 30.04 in 6.2 mi SW 10.4 mph 15.0 mph N/A   Scattered Clouds
1:20 PM 48.2 °F - 32.0 °F 54% 29.97 in 6.2 mi West 8.1 mph 15.0 mph N/A   Partly Cloudy
2:20 PM 51.8 °F - 26.6 °F 38% 29.94 in 6.2 mi WSW 20.7 mph 25.3 mph N/A   Partly Cloudy
3:20 PM 51.8 °F - 23.0 °F 33% 29.93 in 6.2 mi West 19.6 mph 29.9 mph N/A   Partly Cloudy
4:20 PM 51.8 °F - 21.2 °F 30% 29.94 in 6.2 mi West 19.6 mph 26.5 mph N/A   Partly Cloudy
5:20 PM 51.8 °F - 26.6 °F 38% 29.96 in 6.2 mi West 15.0 mph 23.0 mph N/A   Partly Cloudy
6:20 PM 50.0 °F - 23.0 °F 35% 30.01 in 6.2 mi WSW 13.8 mph - N/A   Partly Cloudy
7:20 PM 46.4 °F - 26.6 °F 46% 30.05 in 5.6 mi SSW 2.3 mph - N/A   Haze
8:20 PM 44.6 °F 42.2 °F 30.2 °F 57% 30.09 in 5.6 mi South 4.6 mph - N/A   Haze
9:20 PM 42.8 °F 40.1 °F 30.2 °F 61% 30.12 in 5.6 mi SSE 4.6 mph - N/A   Haze
10:20 PM 41.0 °F - 30.2 °F 65% 30.15 in 5.6 mi Variable 2.3 mph - N/A   Haze
11:20 PM 39.2 °F 35.9 °F 30.2 °F 70% 30.19 in 5.6 mi ENE 4.6 mph - N/A   Clear